Tracking 17149 objects as of 22-May-2015
HD Live streaming from Space Station

OMID


OMID is no longer on orbit
OMID is classified as:


NORAD ID: 33506
Int'l Code: 2009-004A
Perigee: N/A
Apogee: N/A
Inclination: N/A
Period: N/A
Semi major axis: N/A
RCS: N/A
Launch date: February 2, 2009
Source: Iran (IRAN)
Decay date: 2009-04-25

Omid (Persian: meaning "Hope") is Iran's first domestically made satellite. It is described as a data-processing satellite for research and telecommunications,
Your satellite tracking list
Your tracking list is empty





NASA's NSSDC Master Catalog

Two Line Element Set (TLE):
1 33506U 09004A   09114.86154729  .06921312  12321-4  12316-3 0  9990
2 33506 055.4370 280.8401 0011504 012.0650 349.7794 16.46787765 12981

Source of the keplerian elements: AFSPC

N2YO: 334